Regional Weather Roundup
Issued by NWS Upton, NY

Current Version | Previous Version | Graphics & Text | Print | Product List | Glossary Off
Versions: 1 2 3 4 5 6 7 8 9 10 11 12 13 14 15 16 17 18 19 20 21 22 23 24 25 26 27 28 29 30 31 32 33 34 35 36 37 38 39 40 41 42 43 44 45 46 47 48 49 50

000
ASUS41 KOKX 250705
RWROKX

REGIONAL WEATHER ROUNDUP
NATIONAL WEATHER SERVICE NEW YORK NY
200 AM EST TUE NOV 25 2014

NOTE: "FAIR" INDICATES FEW OR NO CLOUDS BELOW 12,000 FEET WITH NO
SIGNIFICANT WEATHER AND/OR OBSTRUCTIONS TO VISIBILITY.

NYZ071-072-176-178-NJZ106-104-250800-
NEW YORK CITY METRO AREA


CITY           SKY/WX    TMP DP  RH WIND       PRES   REMARKS
CENTRAL PARK   CLOUDY    67  56  67 CALM      29.77S
LAGUARDIA APRT CLOUDY    66  57  72 W12G22    29.74S
KENNEDY INTL   CLOUDY    54  51  90 S6        29.76S
NEWARK/LIBERTY CLOUDY    66  56  70 W13       29.74S
BRNX BOT. GARD   N/A     66  55  68 W7        29.77R
TETERBORO      CLOUDY    66  56  70 SW10      29.74S
$$

NYZ177-179-078>081-250800-
LONG ISLAND NEW YORK

CITY           SKY/WX    TMP DP  RH WIND       PRES   REMARKS
FARMINGDALE    CLOUDY    57  55  93 SW5       29.75F FOG
ISLIP          CLOUDY    56  56 100 SW6       29.75F FOG
SHIRLEY        CLOUDY    57  57 100 SW5       29.77F FOG
WESTHAMPTON    FOG       57  56  96 SW8       29.77F VSB 1/4
MONTAUK POINT    N/A     58  57  97 SW12G22   29.80R
$$

NYZ052-065-067-250800-
HUDSON VALLEY

CITY           SKY/WX    TMP DP  RH WIND       PRES   REMARKS
WHITE PLAINS   CLOUDY    64  56  75 W9        29.75R
NEWBURGH       NOT AVBL
MONTGOMERY     CLOUDY    57  52  83 SW7       29.73R
POUGHKEEPSIE   CLOUDY    64  55  72 S5        29.74R
ALBANY         PTCLDY    61  52  72 SE9       29.68R
$$

NJZ001-105-106-008-010-013-015-019>022-104-250800-
NEW JERSEY

CITY           SKY/WX    TMP DP  RH WIND       PRES   REMARKS
NEWARK/LIBERTY CLOUDY    66  56  70 W13       29.74S
TETERBORO      CLOUDY    66  56  70 SW10      29.74S
CALDWELL       CLOUDY    64  55  72 W5        29.75S
MORRISTOWN       N/A     66  57  72 W9        29.75R
SOMERVILLE     CLOUDY    66  56  70 VRB5      29.74S
SUSSEX         CLOUDY    57  53  86 SW3       29.76R
ANDOVER          N/A     59  54  83 VRB5      29.76R
TRENTON        CLOUDY    65  56  72 W14       29.77R
MILLVILLE      CLOUDY    63  58  83 SW5       29.82R
ATLANTIC CITY  CLOUDY    60  58  92 S7        29.81R
WRIGHTSTOWN    CLOUDY    64  57  80 SW9       29.77R
TOMS RIVER     CLOUDY    63  57  82 CALM      29.81R
BELMAR         CLOUDY    64  55  72 SW8       29.79R
$$

PAZ047>061-062-071-250800-
EASTERN PENNSYLVANIA

CITY           SKY/WX    TMP DP  RH WIND       PRES   REMARKS
PHILADELPHIA   CLOUDY    63  57  81 SW12      29.79R
ALLENTOWN      CLOUDY    60  53  77 W10       29.78R
SCRANTON       CLOUDY    59  27  29 SW12G25   29.77R
$$

CTZ002-004>006-009-010-012-RIZ004-006-007-MAZ004-011-015-250800-
SOUTHERN NEW ENGLAND
 IN CT

CITY           SKY/WX    TMP DP  RH WIND       PRES   REMARKS
BRADLEY INTL   CLOUDY    65  55  70 W14       29.71R
HARTFORD       CLOUDY    67  55  65 SW15G26   29.72R
DANBURY        CLOUDY    62  54  74 W7        29.75S
WTRBRY/OXFORD  CLOUDY    63  55  77 W8        29.76S
BRIDGEPORT     CLOUDY    55  53  93 S12       29.75R
MERIDEN        CLOUDY    66  55  67 S8        29.75R
NEW HAVEN      CLOUDY    56  51  84 S5        29.76R HAZE
CHESTER        FOG       55  55 100 SW6       29.77S VSB 1/4
GROTON         CLOUDY    55  55 100 SW10      29.77S FOG
WILLIMANTIC    CLOUDY    66  55  67 SW8       29.75R

 IN RI

CITY           SKY/WX    TMP DP  RH WIND       PRES   REMARKS
PROVIDENCE     CLOUDY    59  56  89 SW7       29.75S
BLOCK ISLAND   CLOUDY    57  54  88 SW14G20   29.79F
WESTERLY       FOG       56  56 100 SW8       29.79R VSB 3/4

 IN MA

CITY           SKY/WX    TMP DP  RH WIND       PRES   REMARKS
BOSTON         MOCLDY    57  54  89 S13       29.73R
WORCESTER      MOCLDY    61  54  77 W22G30    29.72R
WESTFIELD      CLOUDY    63  54  72 SW5       29.72R
PROVINCETOWN   CLOUDY    55  54  94 SW17G23   29.77S
NANTUCKET      CLOUDY    58  57  97 SW17      29.83R FOG
$$

ANZ330-335-338-340-345-350-353-355-250800-
COASTAL MARINE OBSERVATIONS


STATION/POSITION TIME  SKY/WX   TEMP    WIND        PRES    VSBY  WAVE
                                AIR SEA DIR/SP/G                  HT/PER
                 (UTC)          (F)     (DEG/KT/KT) (MB)    (MI)  (FT/S)
NY HARB ENTRANCE 0700            57 57  210/ 16/ 19 1008.6          7/11
4S FIRE IS       0700               53                N/A          10/11
20S FIRE ISLAND  0700            59 56  210/ 19/ 23 1008.4          9/11
23SW MTP         0700                                 N/A          11/11
HUDSON CANYON    0700            63 60  220/ 23/ 29 1009.9         11/ 9
EXECUTION ROCKS  0700            60 48  240/ 10/ 14   N/A
WESTERN LI SOUND 0700            58     200/ 10/ 12   N/A           1
CENTRAL LI SOUND 0600            54 51  210/ 16/ 17   N/A           2/ 4
EASTERN LI SOUND 0600            56 53  220/ 17/ 23   N/A
ROBBINS REEF     0700            67     250/ 14/ 17 1006.0
$$


>>>>>>>>>>>>>>>>>>>>>>>>>>>> KEY <<<<<<<<<<<<<<<<<<<<<<<<<<<
>                                                          <
>     SKY/WX - SKY CONDITION/PRESENT WEATHER               <
>     TMP    - TEMPERATURE IN FAHRENHEIT                   <
>     DP     - DEWPOINT IN FAHRENHEIT                      <
>     RH     - RELATIVE HUMIDITY IN PERCENT                <
>     WIND   - DIRECTION AND SPEED IN MPH                  <
>     PRES   - MEAN SEA LEVEL PRESSURE IN INCHES OF HG     <
>     WCI    - WIND CHILL INDEX                            <
>     VSB    - VISIBILITY IN MILES                         <
>     HX     - HEAT INDEX                                  <
>     TC     - TEMPERATURE IN CELSIUS                      <
>     VRB    - VARIABLE WIND DIRECTION                     <
>                                                          <
>>>>>>>>>>>>>>>>>>>>>>>>>>>> KEY <<<<<<<<<<<<<<<<<<<<<<<<<<<





USA.gov is the U.S. government's official web portal to all federal, state and local government web resources and services.